Tracking 32963 objects as of 22-Jan-2026
HD Live streaming from Space Station
objects crossing your sky now

THOR ABLESTAR DEB

Track THOR ABLESTAR DEB now!
10-day predictions


NORAD ID: 461
Int'l Code: 1961-015EX
Perigee: 557.2 km
Apogee: 581.7 km
Inclination: 67.5 °
Period: 95.9 minutes
Semi major axis: 6940 km
RCS: 0.1159 m2 (medium)
Launch date: June 29, 1961
Source: United States (US)
Launch site: AIR FORCE EASTERN TEST RANGE (AFETR)

Note: This is SATELLITE DEBRIS
Your satellite tracking list
Your tracking list is empty




NASA's NSSDC Master Catalog

Two Line Element Set (TLE):
1   461U 61015EX  26021.44100467  .00049120  00000-0  37605-2 0  9990
2   461  67.4950 147.7706 0017639  93.3998 266.9162 15.01478916363728
Source of the keplerian elements: AFSPC